Time,TemperatureF,DewpointF,PressureIn,WindDirection,WindDirectionDegrees,WindSpeedMPH,WindSpeedGustMPH,Humidity,HourlyPrecipIn,Conditions,Clouds,dailyrainin,SoftwareType,DateUTC
2013-06-10 00:03:00,68.0,65.0,29.88,East,91,1.0,5.0,90,0.06,,,0.06,,2013-06-10 04:03:00,
2013-06-10 00:13:00,68.0,65.0,29.88,East,91,1.0,5.0,90,0.06,,,0.06,,2013-06-10 04:13:00,
2013-06-10 00:23:00,67.0,65.0,29.88,ENE,58,3.0,4.0,92,0.03,,,0.07,,2013-06-10 04:23:00,
2013-06-10 00:33:00,67.0,65.0,29.87,ENE,69,1.0,3.0,93,0.02,,,0.07,,2013-06-10 04:33:00,
2013-06-10 00:42:00,67.0,65.0,29.87,ENE,69,1.0,3.0,93,0.02,,,0.07,,2013-06-10 04:42:00,
2013-06-10 00:53:00,66.0,64.0,29.88,East,85,0.0,1.0,94,0.02,,,0.07,,2013-06-10 04:53:00,
2013-06-10 01:02:00,67.0,65.0,29.87,ENE,70,3.0,4.0,94,0.02,,,0.08,,2013-06-10 05:02:00,
2013-06-10 01:12:00,67.0,65.0,29.87,ENE,70,3.0,4.0,94,0.02,,,0.08,,2013-06-10 05:12:00,
2013-06-10 01:22:00,67.0,66.0,29.86,ENE,76,3.0,5.0,95,0.01,,,0.08,,2013-06-10 05:22:00,
2013-06-10 01:32:00,66.0,65.0,29.86,East,96,5.0,7.0,95,0.02,,,0.09,,2013-06-10 05:32:00,
2013-06-10 01:42:00,66.0,65.0,29.86,East,96,5.0,7.0,95,0.02,,,0.09,,2013-06-10 05:42:00,
2013-06-10 01:52:00,66.0,65.0,29.85,ESE,103,4.0,8.0,95,0.02,,,0.09,,2013-06-10 05:52:00,
2013-06-10 02:02:00,66.0,65.0,29.85,ESE,109,5.0,8.0,95,0.01,,,0.09,,2013-06-10 06:02:00,
2013-06-10 02:12:00,66.0,65.0,29.85,ESE,109,5.0,8.0,95,0.01,,,0.09,,2013-06-10 06:12:00,
2013-06-10 02:22:00,67.0,66.0,29.84,ESE,121,6.0,9.0,95,0.02,,,0.10,,2013-06-10 06:22:00,
2013-06-10 02:32:00,67.0,66.0,29.83,SE,132,4.0,11.0,95,0.01,,,0.10,,2013-06-10 06:32:00,
2013-06-10 02:42:00,67.0,66.0,29.83,SE,132,4.0,11.0,95,0.01,,,0.10,,2013-06-10 06:42:00,
2013-06-10 02:53:00,67.0,66.0,29.83,SE,141,5.0,12.0,95,0.02,,,0.11,,2013-06-10 06:53:00,
2013-06-10 03:02:00,67.0,66.0,29.83,SE,138,5.0,8.0,95,0.02,,,0.11,,2013-06-10 07:02:00,
2013-06-10 03:12:00,67.0,66.0,29.83,SE,138,5.0,8.0,95,0.02,,,0.11,,2013-06-10 07:12:00,
2013-06-10 03:22:00,67.0,65.0,29.83,ESE,117,3.0,8.0,94,0.01,,,0.11,,2013-06-10 07:22:00,
2013-06-10 03:32:00,67.0,66.0,29.82,SE,144,4.0,7.0,95,0.01,,,0.11,,2013-06-10 07:32:00,
2013-06-10 03:42:00,67.0,66.0,29.82,SE,144,4.0,7.0,95,0.01,,,0.11,,2013-06-10 07:42:00,
2013-06-10 03:52:00,66.0,65.0,29.81,SE,137,4.0,9.0,95,0.01,,,0.12,,2013-06-10 07:52:00,
2013-06-10 04:02:00,66.0,65.0,29.81,ESE,123,1.0,8.0,96,0.01,,,0.12,,2013-06-10 08:02:00,
2013-06-10 04:12:00,66.0,65.0,29.81,ESE,123,1.0,8.0,96,0.01,,,0.12,,2013-06-10 08:12:00,
2013-06-10 04:22:00,66.0,65.0,29.80,ESE,122,4.0,8.0,95,0.01,,,0.12,,2013-06-10 08:22:00,
2013-06-10 04:32:00,66.0,65.0,29.79,ESE,110,4.0,6.0,96,0.02,,,0.13,,2013-06-10 08:32:00,
2013-06-10 04:42:00,66.0,65.0,29.79,ESE,110,4.0,6.0,96,0.02,,,0.13,,2013-06-10 08:42:00,
2013-06-10 04:52:00,66.0,65.0,29.79,SE,124,6.0,9.0,96,0.01,,,0.13,,2013-06-10 08:52:00,
2013-06-10 05:02:00,66.0,65.0,29.79,SSE,151,7.0,12.0,96,0.01,,,0.13,,2013-06-10 09:02:00,
2013-06-10 05:12:00,66.0,65.0,29.79,SSE,151,7.0,12.0,96,0.01,,,0.13,,2013-06-10 09:12:00,
2013-06-10 05:22:00,66.0,65.0,29.78,ESE,119,6.0,13.0,95,0.02,,,0.14,,2013-06-10 09:22:00,
2013-06-10 05:32:00,66.0,65.0,29.78,SE,124,5.0,12.0,96,0.01,,,0.14,,2013-06-10 09:32:00,
2013-06-10 05:42:00,66.0,65.0,29.78,SE,124,5.0,12.0,96,0.01,,,0.14,,2013-06-10 09:42:00,
2013-06-10 05:53:00,66.0,65.0,29.78,East,93,4.0,9.0,96,0.02,,,0.15,,2013-06-10 09:53:00,
2013-06-10 06:03:00,66.0,65.0,29.77,ESE,119,3.0,5.0,96,0.02,,,0.15,,2013-06-10 10:03:00,
2013-06-10 06:12:00,66.0,65.0,29.77,ESE,119,3.0,5.0,96,0.02,,,0.15,,2013-06-10 10:12:00,
2013-06-10 06:23:00,66.0,65.0,29.77,ESE,103,3.0,6.0,96,0.02,,,0.16,,2013-06-10 10:23:00,
2013-06-10 06:33:00,66.0,65.0,29.77,SE,140,3.0,8.0,96,0.02,,,0.16,,2013-06-10 10:33:00,
2013-06-10 06:42:00,66.0,65.0,29.77,SE,140,3.0,8.0,96,0.02,,,0.16,,2013-06-10 10:42:00,
2013-06-10 06:52:00,66.0,65.0,29.77,SE,143,3.0,5.0,96,0.01,,,0.16,,2013-06-10 10:52:00,
2013-06-10 07:03:00,66.0,65.0,29.77,ESE,123,4.0,9.0,96,0.02,,,0.17,,2013-06-10 11:03:00,
2013-06-10 07:12:00,66.0,65.0,29.77,ESE,123,4.0,9.0,96,0.02,,,0.17,,2013-06-10 11:12:00,
2013-06-10 07:22:00,66.0,65.0,29.78,SSW,196,4.0,7.0,96,0.01,,,0.17,,2013-06-10 11:22:00,
2013-06-10 07:32:00,66.0,65.0,29.77,SE,136,4.0,9.0,95,0.01,,,0.17,,2013-06-10 11:32:00,
2013-06-10 07:42:00,66.0,65.0,29.77,SE,136,4.0,9.0,95,0.01,,,0.17,,2013-06-10 11:42:00,
2013-06-10 07:52:00,66.0,65.0,29.77,SE,140,5.0,10.0,96,0.02,,,0.18,,2013-06-10 11:52:00,
2013-06-10 08:02:00,66.0,65.0,29.77,SSE,158,3.0,7.0,96,0.01,,,0.18,,2013-06-10 12:02:00,
2013-06-10 08:12:00,66.0,65.0,29.77,SSE,158,3.0,7.0,96,0.01,,,0.18,,2013-06-10 12:12:00,
2013-06-10 08:22:00,67.0,66.0,29.77,SSW,207,3.0,9.0,96,0.01,,,0.18,,2013-06-10 12:22:00,
2013-06-10 08:32:00,67.0,66.0,29.77,SW,225,4.0,10.0,95,0.02,,,0.19,,2013-06-10 12:32:00,
2013-06-10 08:42:00,67.0,66.0,29.77,SW,225,4.0,10.0,95,0.02,,,0.19,,2013-06-10 12:42:00,
2013-06-10 08:52:00,66.0,65.0,29.77,SW,229,4.0,9.0,95,0.01,,,0.19,,2013-06-10 12:52:00,
2013-06-10 09:02:00,66.0,64.0,29.77,SSW,208,7.0,12.0,94,0.01,,,0.19,,2013-06-10 13:02:00,
2013-06-10 09:12:00,66.0,64.0,29.77,SSW,208,7.0,12.0,94,0.01,,,0.19,,2013-06-10 13:12:00,
2013-06-10 09:22:00,66.0,65.0,29.78,WSW,250,5.0,11.0,95,0.01,,,0.19,,2013-06-10 13:22:00,
2013-06-10 09:32:00,66.0,65.0,29.78,SW,220,3.0,8.0,95,0.00,,,0.19,,2013-06-10 13:32:00,
2013-06-10 09:42:00,66.0,65.0,29.78,SW,220,3.0,8.0,95,0.00,,,0.19,,2013-06-10 13:42:00,
2013-06-10 09:52:00,66.0,64.0,29.78,SSW,197,6.0,9.0,94,0.01,,,0.20,,2013-06-10 13:52:00,
2013-06-10 10:02:00,66.0,64.0,29.78,SSW,207,6.0,12.0,94,0.01,,,0.20,,2013-06-10 14:02:00,
2013-06-10 10:12:00,66.0,64.0,29.78,SSW,207,6.0,12.0,94,0.01,,,0.20,,2013-06-10 14:12:00,
2013-06-10 10:22:00,66.0,64.0,29.78,SW,215,5.0,9.0,94,0.01,,,0.20,,2013-06-10 14:22:00,
2013-06-10 10:32:00,66.0,64.0,29.78,SSW,210,6.0,9.0,93,0.02,,,0.21,,2013-06-10 14:32:00,
2013-06-10 10:42:00,66.0,64.0,29.78,SSW,210,6.0,9.0,93,0.02,,,0.21,,2013-06-10 14:42:00,
2013-06-10 10:52:00,66.0,64.0,29.78,South,184,5.0,7.0,92,0.01,,,0.21,,2013-06-10 14:52:00,
2013-06-10 11:02:00,67.0,65.0,29.78,SW,232,4.0,10.0,92,0.01,,,0.21,,2013-06-10 15:02:00,
2013-06-10 11:12:00,67.0,65.0,29.78,SW,232,4.0,10.0,92,0.01,,,0.21,,2013-06-10 15:12:00,
2013-06-10 11:22:00,68.0,65.0,29.78,South,184,6.0,11.0,89,0.01,,,0.21,,2013-06-10 15:22:00,
2013-06-10 11:33:00,70.0,66.0,29.78,WSW,255,7.0,12.0,87,0.01,,,0.22,,2013-06-10 15:33:00,
2013-06-10 11:43:00,70.0,66.0,29.78,WSW,255,7.0,12.0,87,0.01,,,0.22,,2013-06-10 15:43:00,
2013-06-10 11:53:00,69.0,65.0,29.78,WSW,239,6.0,14.0,87,0.01,,,0.22,,2013-06-10 15:53:00,
2013-06-10 12:03:00,69.0,65.0,29.78,SSW,211,5.0,13.0,86,0.02,,,0.23,,2013-06-10 16:03:00,
2013-06-10 12:13:00,69.0,65.0,29.78,SSW,211,5.0,13.0,86,0.02,,,0.23,,2013-06-10 16:13:00,
2013-06-10 12:23:00,70.0,65.0,29.78,SW,215,5.0,12.0,85,0.02,,,0.23,,2013-06-10 16:23:00,
2013-06-10 12:33:00,72.0,66.0,29.78,SSW,210,6.0,11.0,81,0.01,,,0.23,,2013-06-10 16:33:00,
2013-06-10 12:43:00,72.0,65.0,29.78,West,259,6.0,13.0,78,0.01,,,0.23,,2013-06-10 16:43:00,
2013-06-10 12:53:00,72.0,65.0,29.78,West,259,6.0,13.0,78,0.01,,,0.23,,2013-06-10 16:53:00,
2013-06-10 13:03:00,72.0,64.0,29.78,West,261,7.0,13.0,75,0.01,,,0.24,,2013-06-10 17:03:00,
2013-06-10 13:14:00,72.0,64.0,29.78,West,261,7.0,13.0,75,0.01,,,0.24,,2013-06-10 17:14:00,
2013-06-10 13:27:00,74.0,66.0,29.77,SW,219,6.0,14.0,75,0.01,,,0.24,,2013-06-10 17:27:00,
2013-06-10 13:38:00,74.0,64.0,29.77,SW,229,7.0,14.0,71,0.02,,,0.25,,2013-06-10 17:38:00,
2013-06-10 13:48:00,74.0,64.0,29.77,SW,215,7.0,12.0,70,0.02,,,0.25,,2013-06-10 17:48:00,
2013-06-10 13:58:00,74.0,64.0,29.77,SW,215,7.0,12.0,70,0.02,,,0.25,,2013-06-10 17:58:00,
2013-06-10 14:07:00,74.0,63.0,29.77,WSW,244,9.0,14.0,68,0.01,,,0.25,,2013-06-10 18:07:00,
2013-06-10 14:14:00,74.0,63.0,29.77,WSW,244,9.0,14.0,68,0.01,,,0.25,,2013-06-10 18:14:00,
2013-06-10 14:25:00,75.0,64.0,29.77,SSW,212,8.0,14.0,68,0.01,,,0.25,,2013-06-10 18:25:00,
2013-06-10 14:35:00,75.0,63.0,29.77,SSW,201,6.0,17.0,67,0.01,,,0.26,,2013-06-10 18:35:00,
2013-06-10 14:48:00,75.0,63.0,29.77,SSW,201,6.0,17.0,67,0.01,,,0.26,,2013-06-10 18:48:00,
2013-06-10 14:55:00,76.0,62.0,29.77,WSW,242,7.0,13.0,63,0.01,,,0.26,,2013-06-10 18:55:00,
2013-06-10 15:03:00,76.0,62.0,29.76,SSW,212,7.0,16.0,61,0.01,,,0.26,,2013-06-10 19:03:00,
2013-06-10 15:13:00,76.0,62.0,29.76,SSW,212,7.0,16.0,61,0.01,,,0.26,,2013-06-10 19:13:00,
2013-06-10 15:22:00,76.0,62.0,29.76,SW,236,8.0,18.0,62,0.02,,,0.27,,2013-06-10 19:22:00,
2013-06-10 15:33:00,76.0,61.0,29.76,WSW,254,8.0,16.0,59,0.01,,,0.27,,2013-06-10 19:33:00,
2013-06-10 15:43:00,76.0,61.0,29.76,WSW,254,8.0,16.0,59,0.01,,,0.27,,2013-06-10 19:43:00,
2013-06-10 15:53:00,76.0,62.0,29.77,WSW,253,7.0,11.0,61,0.01,,,0.27,,2013-06-10 19:53:00,
2013-06-10 16:03:00,76.0,62.0,29.76,West,267,3.0,11.0,63,0.01,,,0.27,,2013-06-10 20:03:00,
2013-06-10 16:12:00,76.0,62.0,29.76,West,267,3.0,11.0,63,0.01,,,0.27,,2013-06-10 20:12:00,
2013-06-10 16:23:00,75.0,62.0,29.76,SSW,202,5.0,11.0,64,0.01,,,0.28,,2013-06-10 20:23:00,
2013-06-10 16:32:00,75.0,62.0,29.76,WSW,250,6.0,10.0,63,0.01,,,0.28,,2013-06-10 20:32:00,
2013-06-10 16:43:00,75.0,62.0,29.76,WSW,250,6.0,10.0,63,0.01,,,0.28,,2013-06-10 20:43:00,
2013-06-10 16:53:00,73.0,65.0,29.77,NW,324,8.0,13.0,75,0.01,,,0.28,,2013-06-10 20:53:00,
2013-06-10 17:02:00,69.0,65.0,29.77,West,263,3.0,10.0,86,0.01,,,0.29,,2013-06-10 21:02:00,
2013-06-10 17:12:00,69.0,65.0,29.77,West,263,3.0,10.0,86,0.01,,,0.29,,2013-06-10 21:12:00,
2013-06-10 17:23:00,69.0,65.0,29.77,West,281,4.0,8.0,87,0.01,,,0.29,,2013-06-10 21:23:00,
2013-06-10 17:33:00,70.0,66.0,29.77,WNW,288,4.0,8.0,86,0.01,,,0.29,,2013-06-10 21:33:00,
2013-06-10 17:43:00,70.0,66.0,29.77,WNW,288,4.0,8.0,86,0.01,,,0.29,,2013-06-10 21:43:00,
2013-06-10 17:53:00,71.0,65.0,29.77,NW,311,2.0,9.0,82,0.01,,,0.29,,2013-06-10 21:53:00,
2013-06-10 18:03:00,71.0,65.0,29.78,NW,306,3.0,7.0,82,0.00,,,0.29,,2013-06-10 22:03:00,
2013-06-10 18:13:00,71.0,65.0,29.78,NW,306,3.0,7.0,82,0.00,,,0.29,,2013-06-10 22:13:00,
2013-06-10 18:22:00,70.0,65.0,29.77,NW,309,0.0,3.0,85,0.00,,,0.29,,2013-06-10 22:22:00,
2013-06-10 18:33:00,70.0,65.0,29.78,WNW,294,3.0,8.0,84,0.01,,,0.30,,2013-06-10 22:33:00,
2013-06-10 18:42:00,70.0,65.0,29.78,West,271,2.0,4.0,85,0.01,,,0.30,,2013-06-10 22:42:00,
2013-06-10 18:52:00,70.0,65.0,29.78,West,271,2.0,4.0,85,0.01,,,0.30,,2013-06-10 22:52:00,
2013-06-10 19:03:00,70.0,65.0,29.78,WSW,240,5.0,9.0,83,0.01,,,0.30,,2013-06-10 23:03:00,
2013-06-10 19:12:00,70.0,65.0,29.78,WSW,240,5.0,9.0,83,0.01,,,0.30,,2013-06-10 23:12:00,
2013-06-10 19:22:00,70.0,65.0,29.78,WSW,254,2.0,6.0,84,0.01,,,0.30,,2013-06-10 23:22:00,
2013-06-10 19:32:00,70.0,65.0,29.78,West,262,3.0,6.0,84,0.01,,,0.31,,2013-06-10 23:32:00,
2013-06-10 19:42:00,70.0,65.0,29.78,West,262,3.0,6.0,84,0.01,,,0.31,,2013-06-10 23:42:00,
2013-06-10 19:52:00,70.0,65.0,29.78,WSW,244,2.0,5.0,84,0.01,,,0.31,,2013-06-10 23:52:00,
2013-06-10 20:02:00,71.0,66.0,29.78,SW,217,2.0,4.0,84,0.01,,,0.31,,2013-06-11 00:02:00,
2013-06-10 20:12:00,71.0,66.0,29.78,WNW,284,2.0,5.0,84,0.01,,,0.31,,2013-06-11 00:12:00,
2013-06-10 20:22:00,71.0,66.0,29.78,WNW,284,2.0,5.0,84,0.01,,,0.31,,2013-06-11 00:22:00,
2013-06-10 20:32:00,71.0,66.0,29.78,West,271,2.0,5.0,84,0.00,,,0.31,,2013-06-11 00:32:00,
2013-06-10 20:42:00,71.0,66.0,29.78,West,271,2.0,5.0,84,0.00,,,0.31,,2013-06-11 00:42:00,
2013-06-10 20:52:00,71.0,66.0,29.79,WNW,284,2.0,4.0,85,0.00,,,0.31,,2013-06-11 00:52:00,
2013-06-10 21:02:00,72.0,66.0,29.79,WNW,291,7.0,12.0,82,0.01,,,0.32,,2013-06-11 01:02:00,
2013-06-10 21:12:00,72.0,66.0,29.79,WNW,291,7.0,12.0,82,0.01,,,0.32,,2013-06-11 01:12:00,
2013-06-10 21:22:00,71.0,65.0,29.79,WNW,290,7.0,9.0,81,0.01,,,0.32,,2013-06-11 01:22:00,
2013-06-10 21:33:00,70.0,65.0,29.79,West,270,4.0,9.0,83,0.01,,,0.32,,2013-06-11 01:33:00,
2013-06-10 21:42:00,70.0,65.0,29.79,West,270,4.0,9.0,83,0.01,,,0.32,,2013-06-11 01:42:00,
2013-06-10 21:53:00,69.0,64.0,29.80,West,273,4.0,10.0,84,0.02,,,0.33,,2013-06-11 01:53:00,
2013-06-10 22:02:00,68.0,64.0,29.80,West,281,5.0,12.0,86,0.01,,,0.33,,2013-06-11 02:02:00,
2013-06-10 22:12:00,68.0,64.0,29.80,West,281,5.0,12.0,86,0.01,,,0.33,,2013-06-11 02:12:00,
2013-06-10 22:22:00,68.0,64.0,29.81,WNW,282,5.0,7.0,88,0.01,,,0.33,,2013-06-11 02:22:00,
2013-06-10 22:32:00,67.0,64.0,29.82,WNW,284,2.0,6.0,89,0.01,,,0.33,,2013-06-11 02:32:00,
2013-06-10 22:42:00,67.0,64.0,29.83,WNW,302,3.0,7.0,90,0.00,,,0.33,,2013-06-11 02:42:00,
2013-06-10 22:52:00,67.0,64.0,29.83,WNW,302,3.0,7.0,90,0.00,,,0.33,,2013-06-11 02:52:00,
2013-06-10 23:03:00,66.0,63.0,29.83,WNW,299,5.0,9.0,90,0.00,,,0.33,,2013-06-11 03:03:00,
2013-06-10 23:13:00,66.0,63.0,29.84,West,275,6.0,10.0,90,0.00,,,0.33,,2013-06-11 03:13:00,
2013-06-10 23:22:00,66.0,63.0,29.84,West,275,6.0,10.0,90,0.00,,,0.33,,2013-06-11 03:22:00,
2013-06-10 23:32:00,65.0,62.0,29.84,West,278,4.0,9.0,91,0.00,,,0.33,,2013-06-11 03:32:00,
2013-06-10 23:43:00,65.0,63.0,29.84,West,275,3.0,8.0,92,0.01,,,0.34,,2013-06-11 03:43:00,
2013-06-10 23:53:00,65.0,63.0,29.84,West,275,3.0,8.0,92,0.01,,,0.34,,2013-06-11 03:53:00,